Tracking 33744 objects as of 12-Apr-2026
HD Live streaming from Space Station
objects crossing your sky now

SL-6 R/B(2)

Track SL-6 R/B(2) now!


NORAD ID: 11079
Int'l Code: 1978-095E
Perigee: 965.4 km
Apogee: 35,699.3 km
Inclination: 64.0 °
Period: 644.0 minutes
Semi major axis: 24703 km
RCS: 6.8174 m2 (large)
Launch date: October 13, 1978
Source: Commonwealth of Independent States (former USSR) (CIS)
Launch site: PLESETSK MISSILE AND SPACE COMPLEX (PKMTR)

Note: This is a ROCKET BODY
Your satellite tracking list
Your tracking list is empty




NASA's NSSDC Master Catalog

Two Line Element Set (TLE):
1 11079U 78095E   26094.05377709 -.00000064  00000-0  25408-3 0  9999
2 11079  63.9869 286.0222 7030203 274.1911  15.1471  2.23598748 90908
Source of the keplerian elements: AFSPC